Terug naar catalogus

CZ-3B DEB

ActiefGTO
NORAD 40839·DEBRIS·🇨🇳 China

Gelanceerd Dec 19, 2011 vanaf Xichang Satellite Launch Center

Loading…

TLE

VerouderdSource: Space-Track

Epoch: Sep 14, 2026, 04:07 UTC

1 40839U 11077U   26257.17205787  .00000230  00000-0  21814-2 0  9992
2 40839  25.1478 146.0533 7401141  48.2902 354.6063  2.03683380 90715

Volg CZ-3B DEB in realtime met AllMySat

Download on the App Store